Starlink 11298

operational
NORAD ID: 61211 Int'l Des: 2024-171 Owner: SPXS Country: US Constellation: starlink
LEOCIRCULAR

About Starlink 11298

Description loading...

Live Position

Loading 3D Globe...

Upcoming Passes

Altitude History

Altitude vs Time

uPlot chart will show altitude changes over time

Two-Line Element Set

1 61211U 24171M 26102.93765160 .00003906 00000-0 37107-4 0 9994
2 61211 53.1594 7.7268 0001495 122.5646 237.5516 15.69698035 89777
Epoch: Apr 12, 2026 • Age: 7 hours

Current Status

Altitude 376.2 km
Velocity 7.68 km/s
Sub-Earth Point -45.63°S, 27.03°E
Launch Date Sep 20, 2024
Age 1.5 years
Type internet

Technical Details

Classification Payload
Mass 960.00 kg
Dry Mass 910.00 kg
Total Mass 960.00 kg
Length 0.30 m
Diameter 4.10 m
Span 29.00 m
Shape Box + pan
Manufacturer SPXS
Bus Type Starlink V2MD
Phase Status In Orbit
Owner/State SPXS/US

Large Constellations

Loading constellations...